Regional Weather Roundup
Issued by NWS

Home | Current Version | Previous Version | Graphics & Text | Print | Product List | Glossary Off
Versions: 1 2 3 4 5 6 7 8 9 10 11 12 13 14 15 16 17 18 19 20 21 22 23 24 25 26 27 28 29 30 31 32 33 34 35 36 37 38 39 40 41 42 43 44 45 46 47 48 49 50

000
ASUS43 KMKX 250700
RWRWI

WISCONSIN REGIONAL WEATHER ROUNDUP
NATIONAL WEATHER SERVICE MILWAUKEE/SULLIVAN WI
200 AM CDT FRI APR 25 2014

NOTE: "FAIR" INDICATES FEW OR NO CLOUDS BELOW 12,000 FEET WITH NO
SIGNIFICANT WEATHER AND/OR OBSTRUCTIONS TO VISIBILITY.

WIZ001-002-006>008-014>016-023>028-250800-
NORTHWEST WISCONSIN

CITY           SKY/WX    TMP DP  RH WIND       PRES   REMARKS
SUPERIOR ARPT  CLOUDY    32  32 100 CALM      29.69S
ASHLAND        CLOUDY    33  33 100 SW6       29.66S FOG     WCI  28
HAYWARD        CLOUDY    36  35  96 VRB3      29.67F
SIREN          CLOUDY    37  36  99 SW7       29.70R WCI  31
RICE LAKE      CLOUDY    39  37  90 CALM      29.72R
LADYSMITH      CLOUDY    41  40  97 SW7       29.71R FOG
EAU CLAIRE     NOT AVBL
MENOMONIE      MOSUNNY   41  37  85 W5        29.72S
NEW RICHMOND   CLEAR     36  36 100 S3        29.71F FOG
OSCEOLA        CLEAR     34  34 100 CALM      29.74F FOG
$$

WIZ003>005-009-010-017-018-250800-
NORTH CENTRAL WISCONSIN

CITY           SKY/WX    TMP DP  RH WIND       PRES   REMARKS
WOODRUFF       DRIZZLE   37  35  93 SE7       29.67F WCI  31
RHINELANDER    CLOUDY    36  35  96 SE5       29.68F FOG     WCI  32
EAGLE RIVER    HVY RAIN  35  35 100 S5        29.69S WCI  31
LAND O LAKES   MIX PCPN  34  34  99 SE5       29.69F WCI  30
PHILLIPS       CLOUDY    37  37  97 S8        29.66S FOG     WCI  31
TOMAHAWK       DRIZZLE   37  35  95 CALM      29.68F
MEDFORD        CLOUDY    39  39  99 CALM      29.68S FOG
MERRILL        CLOUDY    37  37 100 CALM      29.68F FOG
$$

WIZ029-030-035-036-043>047-250800-
CENTRAL WISCONSIN

CITY           SKY/WX    TMP DP  RH WIND       PRES   REMARKS
WAUSAU         CLOUDY    38  38 100 CALM      29.67F FOG
MOSINEE        DRIZZLE   37  37 100 CALM      29.70F
MARSHFIELD     CLOUDY    42  40  92 NW9       29.69S FOG
STEVENS POINT  DRIZZLE   38  37  98 CALM      29.70S
WAUPACA        CLOUDY    43  39  87 CALM      29.70S
WAUTOMA        CLOUDY    43  41  93 W3        29.70R FOG
WISC RAPIDS    CLOUDY    42  40  92 NW5       29.70F FOG
CAMP DOUGLAS   NOT AVBL
$$

WIZ011>013-019>022-031-037>040-048>050-250800-
NORTHEAST WISCONSIN

CITY           SKY/WX    TMP DP  RH WIND       PRES   REMARKS
ANTIGO         CLOUDY    36  35  98 SE10      29.69S FOG     WCI  28
STURGEON BAY   CLOUDY    39  34  81 E13       29.72F WCI  32
GREEN BAY      CLOUDY    41  36  82 SE14      29.70F
MANITOWOC      NOT AVBL
APPLETON       DRIZZLE   41  36  81 SE14      29.69S
CLINTONVILLE   DRIZZLE   41  37  87 SE5       29.70R
OSHKOSH        LGT RAIN  43  37  79 S7        29.68S
$$

WIZ032>034-041-042-053>061-250800-
SOUTHWEST WISCONSIN

CITY           SKY/WX    TMP DP  RH WIND       PRES   REMARKS
LA CROSSE      CLOUDY    45  40  82 CALM      29.72F
SPARTA         CLOUDY    43  39  86 W3        29.74S
VIROQUA        CLOUDY    42  41  98 NW8       29.71F
BOSCOBEL       CLOUDY    46  40  79 NW6       29.73S
PRAIRIE DU CHI CLOUDY    44  40  86 W5        29.73S
PLATTEVILLE    MOCLDY    46  43  90 NW8       29.72S
$$

WIZ056-057-062-063-064-067-068-250800-
SOUTH CENTRAL WISCONSIN

CITY           SKY/WX    TMP DP  RH WIND       PRES   REMARKS
BARABOO/DELLS  CLOUDY    44  42  92 NW6G16    29.70R
LONE ROCK      NOT AVBL
WATERTOWN      DRIZZLE   43  42  96 CALM      29.68F
MADISON        CLOUDY    49  47  93 NW7       29.68F
MIDDLETON      CLOUDY    49  48  94 NW12      29.69R
MONROE         CLOUDY    48  48 100 NW13G20   29.67S FOG
JANESVILLE     CLOUDY    50  45  81 N3        29.67S
$$

WIZ051-052-058>065-066-070>072-250800-
SOUTHEAST WISCONSIN

CITY           SKY/WX    TMP DP  RH WIND       PRES   REMARKS
MILWAUKEE      CLOUDY    41  37  86 SE12      29.67F
WAUKESHA       CLOUDY    41  37  87 SE8       29.67F
MILWAUKEE/TIMM CLOUDY    41  36  81 SE6       29.68F
RACINE         LGT RAIN  43  37  79 SE22G30   29.64F
BURLINGTON     CLOUDY    43  39  86 MISG      29.65R
KENOSHA        LGT RAIN  44  39  82 SE22G28   29.63F
FOND DU LAC    CLOUDY    44  38  79 S9        29.69F
SHEBOYGAN      LGT RAIN  41  33  73 SE10G17   29.70S
WEST BEND      CLOUDY    39  34  81 CALM      29.69R
JUNEAU         DRIZZLE   43  40  88 SE7       29.70S
$$

LSZ147-162-250800-
LAKE SUPERIOR

STATION/POSITION TIME  TEMP    WIND        PRES    WAVE
                       AIR SEA DIR/SP/G            HT/PER
                 (UTC) (F)     (DEG/KT/KT) (MB)    (FT/S)
DEVILS ISLAND    0600   34     100/ 15/ 16 1005.5F
PORT WING        0640   33     220/  3/  3 1004.7F
SAXON HARBOR     0600          170/  3/ 10 1004.1F
$$

LMZ867-665-643>646-250800-
LAKE MICHIGAN

STATION/POSITION TIME  TEMP    WIND        PRES    WAVE
                       AIR SEA DIR/SP/G            HT/PER
                 (UTC) (F)     (DEG/KT/KT) (MB)    (FT/S)
NORTHPORT PIER   0600   40     120/ 15/ 22 1008.1F
SISTER BAY       0623   37     140/ 11/ 15   N/A
KEWAUNEE LAKESHO 0600   38     100/ 11/ 14 1007.3F
SHEBOYGAN LAKESH 0600   40     130/ 16/ 19 1006.1F
PORT WASHINGTON  0600   41     140/  5/  8 1006.4
MILWAUKEE LAKESH 0600   41     130/  5/  5   N/A
KENOSHA   LAKESH 0600   43     170/  4/  6   N/A
$$

TC  - TEMPERATURE IN CELSIUS
VSB - VISIBILITY IN STATUTE MILES
WCI - WIND CHILL INDEX
HX  - HEAT INDEX




USA.gov is the U.S. government's official web portal to all federal, state and local government web resources and services.